Location: Valley Falls
(35.0169°N, 81.9753°W)
Time: 14:32:43
(UTC+00:00)

Tiangong - Visible Passes

Search period start: 27 November 2022 00:00
Search period end: 07 December 2022 00:00
Orbit: 386 x 393 km, 41.5° (Epoch: 27 November)

Date Brightness Start Highest point End Pass type
(mag) Time Alt. Az. Time Alt. Az. Time Alt. Az.
27 Nov 0.3 22:54:02 10° S 22:55:34 13° SE 22:57:06 10° ESE visible
28 Nov 0.6 00:28:58 10° WSW 00:30:04 20° WSW 00:30:04 20° WSW visible
28 Nov -1.7 23:30:57 10° SW 23:34:02 48° SSE 23:34:51 37° ESE visible
30 Nov -0.7 00:09:35 10° W 00:11:47 36° WNW 00:11:47 36° WNW visible
30 Nov -2.2 23:11:06 10° WSW 23:14:16 84° NNW 23:16:15 21° ENE visible
01 Dec -1.0 23:49:54 10° W 23:52:50 33° NNW 23:52:51 33° NNW visible
02 Dec -1.5 22:51:03 10° W 22:54:08 47° NNW 22:57:02 11° NE visible
03 Dec 0.9 00:28:47 10° WNW 00:29:19 13° NW 00:29:19 13° NW visible
03 Dec -0.7 23:29:49 10° WNW 23:32:35 26° N 23:33:23 23° NNE visible
05 Dec 0.2 00:08:18 10° NW 00:09:37 18° NW 00:09:37 18° NW visible
05 Dec -0.6 23:09:13 10° WNW 23:11:53 24° N 23:13:30 16° NE visible
06 Dec -0.7 23:47:13 10° NW 23:49:34 27° N 23:49:34 27° N visible
